This is the latest recevied weather packets stored in our database for station/object W8DRH-13. If no packets are shown the sender has not sent any weather packets the latest 10 day(s).
| Time | Temp. | Humidity | Pressure | Rain* | Wind** | Luminosity | Snow |
|---|---|---|---|---|---|---|---|
| 1777593946 | 11.67° C | 57% | 1012.1 hPa | 0 mm | - | 13 W/m² | - |
| 1777593643 | 11.67° C | 56% | 1012.1 hPa | 0 mm | - | 17 W/m² | - |
| 1777593339 | 11.67° C | 57% | 1012.1 hPa | 0 mm | - | 20 W/m² | - |
| 1777593033 | 12.22° C | 57% | 1012 hPa | 0 mm | - | 26 W/m² | - |
| 1777592732 | 12.22° C | 56% | 1012 hPa | 0 mm | - | 34 W/m² | - |
| 1777592428 | 12.22° C | 54% | 1012.2 hPa | 0 mm | - | 43 W/m² | - |
| 1777592124 | 12.22° C | 54% | 1012 hPa | 0 mm | - | 48 W/m² | - |
| 1777591822 | 12.22° C | 55% | 1012 hPa | 0 mm | - | 69 W/m² | - |
| 1777591517 | 11.67° C | 55% | 1012.3 hPa | 0 mm | - | 59 W/m² | - |
| 1777591213 | 11.67° C | 54% | 1012.2 hPa | 0 mm | - | 52 W/m² | - |
| 1777590909 | 11.67° C | 53% | 1012.3 hPa | 0 mm | - | 47 W/m² | - |
| 1777590604 | 11.67° C | 53% | 1012.4 hPa | 0 mm | - | 69 W/m² | - |
| 1777590301 | 11.67° C | 54% | 1012.4 hPa | 0 mm | - | 87 W/m² | - |
| 1777589998 | 12.22° C | 55% | 1012.2 hPa | 0 mm | - | 63 W/m² | - |
| 1777589694 | 12.22° C | 54% | 1012.2 hPa | 0 mm | - | 179 W/m² | - |
| 1777589392 | 12.78° C | 55% | 1012.4 hPa | 0 mm | - | 65 W/m² | - |
| 1777589089 | 12.22° C | 57% | 1012.5 hPa | 0 mm | - | 201 W/m² | - |
| 1777588785 | 12.78° C | 57% | 1012.3 hPa | 0 mm | - | 69 W/m² | - |
| 1777588480 | 12.78° C | 53% | 1012.5 hPa | 0 mm | - | 158 W/m² | - |
| 1777588176 | 12.22° C | 53% | 1012.3 hPa | 0 mm | - | 88 W/m² | - |
| 1777587872 | 11.67° C | 51% | 1012.2 hPa | 0 mm | - | 95 W/m² | - |
| 1777587567 | 11.67° C | 52% | 1012.2 hPa | 0 mm | - | 89 W/m² | - |
| 1777587263 | 12.22° C | 52% | 1012.2 hPa | 0 mm | - | 68 W/m² | - |
| 1777586958 | 13.33° C | 50% | 1012.2 hPa | 0 mm | - | 299 W/m² | - |
| 1777586654 | 13.89° C | 54% | 1012 hPa | 0 mm | - | 342 W/m² | - |
* Rain latest hour (hover to see other rain measurements)
** Current wind speed in m/s (hover to see current wind gust speed)